Regional Weather Roundup
Issued by NWS Cleveland, OH

Home | Current Version | Previous Version | Graphics & Text | Print | Product List | Glossary On
Versions: 1 2 3 4 5 6 7 8 9 10 11 12 13 14 15 16 17 18 19 20 21 22 23 24 25 26 27 28 29 30 31 32 33 34 35 36 37 38 39 40 41 42 43 44 45 46 47 48 49 50
980
ASUS41 KCLE 130012
RWRCLE
OHIO REGIONAL WEATHER ROUNDUP
NATIONAL WEATHER SERVICE WILMINGTON, OH
700 PM EST FRI FEB 12 2016

NOTE: "FAIR" INDICATES FEW OR NO CLOUDS BELOW 12,000 FEET WITH NO
SIGNIFICANT WEATHER AND/OR OBSTRUCTIONS TO VISIBILITY.

OHZ001>008-015>018-024>027-034-035-043-044-130100-
   NORTHWEST OHIO

CITY           SKY/WX    TMP DP  RH WIND       PRES   REMARKS
DEFIANCE       FAIR      19   9  65 NW16G29   30.12R WCI   4
FINDLAY        FAIR      19  10  68 W17       30.07R WCI   4
TOLEDO EXPRESS MOCLDY    17   9  70 NW12      30.08R WCI   4
TOLEDO EXEC    FAIR      19   8  62 NW17G26   30.08R WCI   4
LIMA           FAIR      18  10  71 W15       30.09R WCI   4
$$

OHZ009>014-019>023-028>033-038-089-130100-
   NORTHEAST OHIO

CITY           SKY/WX    TMP DP  RH WIND       PRES   REMARKS
CLE-HOPKINS    LGT SNOW  21  15  78 NW15G31   29.99S VSB 1   WCI   8
CLE-LAKEFRONT  LGT SNOW  24  19  81 NW29G38   29.96R VSB 3/4 WCI   7
CUY CO. ARPT   LGT SNOW  23  21  93 NW17G25   29.94R WCI   9
LORAIN-ELYRIA  LGT SNOW  21  13  71 NW21G33   30.00R WCI   5
ASHTABULA      LGT SNOW  19  16  88 W12       29.91R VSB 3/4 WCI   7
AKRON-CANTON   LGT SNOW  19  14  81 SW10      29.95R WCI   7
WOOSTER        LGT SNOW  20  15  81 W25G35    29.98R VSB 3/4 WCI   2
MANSFIELD      CLOUDY    18  12  77 W13G22    29.99R WCI   5
YOUNGSTOWN     LGT SNOW  18  13  80 SW13      29.91F WCI   5
$$

OHZ042-051>053-060>062-070>072-077>081-130100-
  SOUTHWEST OHIO

CITY           SKY/WX    TMP DP  RH WIND       PRES   REMARKS
CINC-COVINGTON CLOUDY    26  15  63 W16G24    30.14R WCI  14
CINC-LUNKEN    LGT SNOW  26  19  74 W16G28    30.19R WCI  14
HAMILTON       LGT SNOW  26  20  77 NW13      30.18R WCI  15
DAYTON         LGT SNOW  20  15  81 NW21G26   30.13R WCI   4
WRIGHT-PAT AFB LGT SNOW  22  15  74 W22G30    30.11R WCI   6
DAYTON GENERAL LGT SNOW  23  14  68 NW18G29   30.13R WCI   9
WILMINGTON     LGT SNOW  22  19  89 W14       30.09R FOG     WCI   9
$$

OHZ036-037-039>041-045>050-054>059-063>069-073>076-082>088-130100-
  CENTRAL AND SOUTHEAST OHIO

CITY           SKY/WX    TMP DP  RH WIND       PRES   REMARKS
COLUMBUS       HVY SNOW  23  16  74 W21       30.06R VSB 1/4 WCI   8
OSU AIRPORT    LGT SNOW  22  17  81 NW18G28   30.06R WCI   7
BOLTON FIELD   FLURRIES  23  17  78 W14       30.06R WCI  11
RICKENBACK AFB MOCLDY    23  17  78 W14       30.07R WCI  10
NEWARK         MOCLDY    23  15  71 W9        30.03R WCI  13
MARION         MOCLDY    19   8  62 NW17G29   30.05R WCI   4
LANCASTER      CLOUDY    24  17  74 W15       30.06R WCI  11
ZANESVILLE     LGT SNOW  24  18  77 SW8       30.03R WCI  15
NEW PHILLY     LGT SNOW  20  15  81 SW8       30.01R WCI  10
$$




USA.gov is the U.S. government's official web portal to all federal, state and local government web resources and services.